Time,TemperatureF,DewpointF,PressureIn,WindDirection,WindDirectionDegrees,WindSpeedMPH,WindSpeedGustMPH,Humidity,HourlyPrecipIn,Conditions,Clouds,dailyrainin,SoftwareType,DateUTC
2013-02-24 00:01:00,41.0,36.0,30.36,SSW,198,2.0,14.0,83,0.00,,,0.08,,2013-02-24 08:01:00,
2013-02-24 00:11:00,41.0,36.0,30.36,SSW,198,2.0,14.0,83,0.00,,,0.08,,2013-02-24 08:11:00,
2013-02-24 00:22:00,41.0,36.0,30.36,SSW,192,2.0,8.0,83,0.00,,,0.08,,2013-02-24 08:22:00,
2013-02-24 00:31:00,40.0,36.0,30.36,SSW,198,2.0,9.0,84,0.00,,,0.08,,2013-02-24 08:31:00,
2013-02-24 00:41:00,40.0,36.0,30.36,SSW,198,2.0,9.0,84,0.00,,,0.08,,2013-02-24 08:41:00,
2013-02-24 00:53:00,40.0,36.0,30.37,SSW,198,4.0,9.0,84,0.00,,,0.08,,2013-02-24 08:53:00,
2013-02-24 01:01:00,41.0,37.0,30.36,SSW,197,1.0,9.0,84,0.00,,,0.08,,2013-02-24 09:01:00,
2013-02-24 01:11:00,41.0,37.0,30.36,SSW,197,1.0,9.0,84,0.00,,,0.08,,2013-02-24 09:11:00,
2013-02-24 01:21:00,41.0,37.0,30.36,SSW,198,1.0,11.0,84,0.00,,,0.08,,2013-02-24 09:21:00,
2013-02-24 01:31:00,41.0,37.0,30.36,SSW,204,2.0,7.0,84,0.00,,,0.08,,2013-02-24 09:31:00,
2013-02-24 01:41:00,41.0,37.0,30.36,SSW,204,2.0,7.0,84,0.00,,,0.08,,2013-02-24 09:41:00,
2013-02-24 01:52:00,41.0,37.0,30.36,South,182,3.0,10.0,84,0.00,,,0.08,,2013-02-24 09:52:00,
2013-02-24 02:01:00,41.0,37.0,30.36,SSW,192,7.0,12.0,84,0.00,,,0.08,,2013-02-24 10:01:00,
2013-02-24 02:11:00,41.0,37.0,30.36,SSW,192,7.0,12.0,84,0.00,,,0.08,,2013-02-24 10:11:00,
2013-02-24 02:21:00,41.0,37.0,30.35,SSW,205,2.0,14.0,84,0.00,,,0.08,,2013-02-24 10:21:00,
2013-02-24 02:31:00,41.0,37.0,30.35,WSW,242,3.0,9.0,84,0.00,,,0.08,,2013-02-24 10:31:00,
2013-02-24 02:41:00,41.0,37.0,30.35,WSW,242,3.0,9.0,84,0.00,,,0.08,,2013-02-24 10:41:00,
2013-02-24 02:52:00,41.0,37.0,30.36,SSW,200,7.0,13.0,84,0.00,,,0.08,,2013-02-24 10:52:00,
2013-02-24 03:01:00,41.0,37.0,30.36,SSW,200,1.0,14.0,84,0.00,,,0.08,,2013-02-24 11:01:00,
2013-02-24 03:11:00,41.0,37.0,30.36,SSW,200,1.0,14.0,84,0.00,,,0.08,,2013-02-24 11:11:00,
2013-02-24 03:21:00,41.0,37.0,30.35,SSW,197,3.0,11.0,84,0.00,,,0.08,,2013-02-24 11:21:00,
2013-02-24 03:31:00,41.0,37.0,30.36,SSW,203,3.0,15.0,84,0.00,,,0.08,,2013-02-24 11:31:00,
2013-02-24 03:41:00,41.0,37.0,30.36,SSW,203,3.0,15.0,84,0.00,,,0.08,,2013-02-24 11:41:00,
2013-02-24 03:52:00,41.0,36.0,30.35,SSW,196,2.0,12.0,83,0.00,,,0.08,,2013-02-24 11:52:00,
2013-02-24 04:01:00,41.0,37.0,30.35,SSW,195,2.0,9.0,84,0.00,,,0.08,,2013-02-24 12:01:00,
2013-02-24 04:11:00,41.0,37.0,30.35,SSW,195,2.0,9.0,84,0.00,,,0.08,,2013-02-24 12:11:00,
2013-02-24 04:21:00,40.0,36.0,30.35,SSW,196,4.0,13.0,85,0.00,,,0.08,,2013-02-24 12:21:00,
2013-02-24 04:31:00,40.0,36.0,30.35,SSW,196,1.0,10.0,86,0.00,,,0.08,,2013-02-24 12:31:00,
2013-02-24 04:45:00,40.0,36.0,30.35,SSW,196,1.0,10.0,86,0.00,,,0.08,,2013-02-24 12:45:00,
2013-02-24 04:55:00,40.0,36.0,30.35,SSE,149,2.0,10.0,85,0.00,,,0.08,,2013-02-24 12:55:00,
2013-02-24 05:04:00,41.0,36.0,30.34,SSW,197,2.0,12.0,83,0.00,,,0.08,,2013-02-24 13:04:00,
2013-02-24 05:13:00,41.0,36.0,30.34,SSW,197,2.0,12.0,83,0.00,,,0.08,,2013-02-24 13:13:00,
2013-02-24 05:23:00,41.0,36.0,30.34,SE,141,6.0,14.0,82,0.00,,,0.08,,2013-02-24 13:23:00,
2013-02-24 05:32:00,41.0,36.0,30.34,SSE,161,5.0,13.0,82,0.00,,,0.08,,2013-02-24 13:32:00,
2013-02-24 05:42:00,41.0,36.0,30.34,SSE,161,5.0,13.0,82,0.00,,,0.08,,2013-02-24 13:42:00,
2013-02-24 05:54:00,41.0,36.0,30.34,SSW,200,4.0,12.0,82,0.00,,,0.08,,2013-02-24 13:54:00,
2013-02-24 06:01:00,41.0,36.0,30.34,SSW,194,3.0,10.0,83,0.00,,,0.08,,2013-02-24 14:01:00,
2013-02-24 06:12:00,41.0,36.0,30.34,SSW,194,3.0,10.0,83,0.00,,,0.08,,2013-02-24 14:12:00,
2013-02-24 06:22:00,41.0,36.0,30.33,SSW,198,1.0,10.0,83,0.00,,,0.08,,2013-02-24 14:22:00,
2013-02-24 06:32:00,41.0,36.0,30.33,South,185,2.0,10.0,82,0.00,,,0.08,,2013-02-24 14:32:00,
2013-02-24 06:53:00,41.0,36.0,30.33,South,182,2.0,10.0,82,0.00,,,0.08,,2013-02-24 14:53:00,
2013-02-24 07:01:00,41.0,35.0,30.32,South,179,4.0,14.0,80,0.00,,,0.08,,2013-02-24 15:01:00,
2013-02-24 07:11:00,41.0,35.0,30.32,South,179,4.0,14.0,80,0.00,,,0.08,,2013-02-24 15:11:00,
2013-02-24 07:22:00,41.0,35.0,30.32,SSE,150,5.0,17.0,80,0.00,,,0.08,,2013-02-24 15:22:00,
2013-02-24 07:31:00,41.0,36.0,30.32,SSW,194,4.0,15.0,81,0.00,,,0.08,,2013-02-24 15:31:00,
2013-02-24 07:41:00,41.0,36.0,30.32,SSW,194,4.0,15.0,81,0.00,,,0.08,,2013-02-24 15:41:00,
2013-02-24 07:52:00,41.0,36.0,30.33,SE,136,5.0,10.0,81,0.00,,,0.08,,2013-02-24 15:52:00,
2013-02-24 08:01:00,41.0,36.0,30.33,SW,223,3.0,9.0,82,0.00,,,0.08,,2013-02-24 16:01:00,
2013-02-24 08:11:00,41.0,36.0,30.33,SW,223,3.0,9.0,82,0.00,,,0.08,,2013-02-24 16:11:00,
2013-02-24 08:21:00,41.0,36.0,30.33,SSE,163,2.0,7.0,81,0.00,,,0.08,,2013-02-24 16:21:00,
2013-02-24 08:31:00,41.0,35.0,30.33,SSE,147,7.0,15.0,80,0.00,,,0.08,,2013-02-24 16:31:00,
2013-02-24 08:41:00,41.0,35.0,30.33,SSE,147,7.0,15.0,80,0.00,,,0.08,,2013-02-24 16:41:00,
2013-02-24 08:52:00,42.0,35.0,30.33,WSW,254,3.0,15.0,77,0.00,,,0.08,,2013-02-24 16:52:00,
2013-02-24 09:01:00,42.0,35.0,30.32,SW,221,3.0,11.0,77,0.00,,,0.08,,2013-02-24 17:01:00,
2013-02-24 09:11:00,42.0,35.0,30.32,SW,221,3.0,11.0,77,0.00,,,0.08,,2013-02-24 17:11:00,
2013-02-24 09:21:00,43.0,36.0,30.32,SW,219,4.0,11.0,77,0.00,,,0.08,,2013-02-24 17:21:00,
2013-02-24 09:31:00,43.0,36.0,30.32,South,184,4.0,10.0,76,0.00,,,0.08,,2013-02-24 17:31:00,
2013-02-24 09:41:00,43.0,36.0,30.32,South,184,4.0,10.0,76,0.00,,,0.08,,2013-02-24 17:41:00,
2013-02-24 09:52:00,43.0,36.0,30.32,SE,139,5.0,14.0,75,0.00,,,0.08,,2013-02-24 17:52:00,
2013-02-24 10:01:00,44.0,36.0,30.32,SSE,161,4.0,10.0,73,0.00,,,0.08,,2013-02-24 18:01:00,
2013-02-24 10:11:00,44.0,36.0,30.32,SSE,161,4.0,10.0,73,0.00,,,0.08,,2013-02-24 18:11:00,
2013-02-24 10:21:00,44.0,36.0,30.32,South,169,4.0,13.0,73,0.00,,,0.08,,2013-02-24 18:21:00,
2013-02-24 10:31:00,45.0,36.0,30.31,SSE,149,5.0,17.0,71,0.00,,,0.08,,2013-02-24 18:31:00,
2013-02-24 10:41:00,45.0,36.0,30.31,SSE,149,5.0,17.0,71,0.00,,,0.08,,2013-02-24 18:41:00,
2013-02-24 10:52:00,46.0,36.0,30.31,SSE,154,5.0,12.0,69,0.00,,,0.08,,2013-02-24 18:52:00,
2013-02-24 11:01:00,46.0,37.0,30.30,SW,216,2.0,13.0,70,0.00,,,0.08,,2013-02-24 19:01:00,
2013-02-24 11:11:00,46.0,37.0,30.30,SW,216,2.0,13.0,70,0.00,,,0.08,,2013-02-24 19:11:00,
2013-02-24 11:21:00,46.0,36.0,30.30,SSW,205,5.0,17.0,69,0.00,,,0.08,,2013-02-24 19:21:00,
2013-02-24 11:31:00,47.0,37.0,30.30,West,267,3.0,16.0,68,0.00,,,0.08,,2013-02-24 19:31:00,
2013-02-24 11:41:00,47.0,37.0,30.30,West,267,3.0,16.0,68,0.00,,,0.08,,2013-02-24 19:41:00,
2013-02-24 11:52:00,46.0,36.0,30.29,West,274,5.0,15.0,68,0.00,,,0.08,,2013-02-24 19:52:00,
2013-02-24 12:01:00,47.0,37.0,30.28,SSW,196,3.0,16.0,67,0.00,,,0.08,,2013-02-24 20:01:00,
2013-02-24 12:11:00,47.0,37.0,30.28,SSW,196,3.0,16.0,67,0.00,,,0.08,,2013-02-24 20:11:00,
2013-02-24 12:21:00,47.0,37.0,30.28,South,176,6.0,18.0,68,0.00,,,0.08,,2013-02-24 20:21:00,
2013-02-24 12:31:00,47.0,38.0,30.27,SSW,211,3.0,14.0,70,0.00,,,0.08,,2013-02-24 20:31:00,
2013-02-24 12:41:00,47.0,38.0,30.27,SSW,211,3.0,14.0,70,0.00,,,0.08,,2013-02-24 20:41:00,
2013-02-24 12:52:00,46.0,38.0,30.27,SSW,197,7.0,15.0,74,0.00,,,0.08,,2013-02-24 20:52:00,
2013-02-24 13:01:00,46.0,39.0,30.27,West,273,4.0,18.0,75,0.00,,,0.08,,2013-02-24 21:01:00,
2013-02-24 13:11:00,46.0,39.0,30.27,West,273,4.0,18.0,75,0.00,,,0.08,,2013-02-24 21:11:00,
2013-02-24 13:21:00,46.0,38.0,30.25,SSW,200,6.0,13.0,74,0.00,,,0.08,,2013-02-24 21:21:00,
2013-02-24 13:31:00,46.0,38.0,30.25,South,188,5.0,13.0,73,0.00,,,0.08,,2013-02-24 21:31:00,
2013-02-24 13:41:00,46.0,38.0,30.25,South,188,5.0,13.0,73,0.00,,,0.08,,2013-02-24 21:41:00,
2013-02-24 13:52:00,46.0,37.0,30.25,SE,146,3.0,11.0,72,0.00,,,0.08,,2013-02-24 21:52:00,
2013-02-24 14:01:00,46.0,37.0,30.25,SSE,167,6.0,13.0,71,0.00,,,0.08,,2013-02-24 22:01:00,
2013-02-24 14:11:00,46.0,37.0,30.25,SSE,167,6.0,13.0,71,0.00,,,0.08,,2013-02-24 22:11:00,
2013-02-24 14:21:00,47.0,38.0,30.24,SSE,149,1.0,10.0,70,0.00,,,0.08,,2013-02-24 22:21:00,
2013-02-24 14:31:00,47.0,37.0,30.23,SW,215,5.0,12.0,69,0.00,,,0.08,,2013-02-24 22:31:00,
2013-02-24 14:41:00,47.0,37.0,30.23,SW,215,5.0,12.0,69,0.00,,,0.08,,2013-02-24 22:41:00,
2013-02-24 14:52:00,46.0,37.0,30.23,SW,218,2.0,10.0,72,0.00,,,0.08,,2013-02-24 22:52:00,
2013-02-24 15:01:00,46.0,37.0,30.22,SSW,192,3.0,11.0,71,0.00,,,0.08,,2013-02-24 23:01:00,
2013-02-24 15:11:00,46.0,37.0,30.22,SSW,192,3.0,11.0,71,0.00,,,0.08,,2013-02-24 23:11:00,
2013-02-24 15:21:00,46.0,37.0,30.22,ESE,103,3.0,10.0,72,0.00,,,0.08,,2013-02-24 23:21:00,
2013-02-24 15:31:00,46.0,37.0,30.21,SSE,148,2.0,4.0,72,0.00,,,0.08,,2013-02-24 23:31:00,
2013-02-24 15:41:00,46.0,37.0,30.21,SSE,148,2.0,4.0,72,0.00,,,0.08,,2013-02-24 23:41:00,
2013-02-24 15:52:00,46.0,38.0,30.20,SSE,148,4.0,11.0,73,0.00,,,0.08,,2013-02-24 23:52:00,
2013-02-24 16:01:00,46.0,39.0,30.19,SSE,155,4.0,12.0,75,0.00,,,0.08,,2013-02-25 00:01:00,
2013-02-24 16:11:00,46.0,39.0,30.19,SSE,155,4.0,12.0,75,0.00,,,0.08,,2013-02-25 00:11:00,
2013-02-24 16:21:00,46.0,38.0,30.18,SSE,149,6.0,10.0,74,0.00,,,0.08,,2013-02-25 00:21:00,
2013-02-24 16:31:00,46.0,38.0,30.17,SE,145,2.0,10.0,73,0.00,,,0.08,,2013-02-25 00:31:00,
2013-02-24 16:41:00,46.0,38.0,30.17,SE,145,2.0,10.0,73,0.00,,,0.08,,2013-02-25 00:41:00,
2013-02-24 16:52:00,46.0,38.0,30.17,SSE,159,2.0,9.0,73,0.00,,,0.08,,2013-02-25 00:52:00,
2013-02-24 17:01:00,46.0,38.0,30.16,SSE,153,2.0,11.0,74,0.00,,,0.08,,2013-02-25 01:01:00,
2013-02-24 17:11:00,46.0,38.0,30.16,SSE,153,2.0,11.0,74,0.00,,,0.08,,2013-02-25 01:11:00,
2013-02-24 17:21:00,46.0,38.0,30.15,SSE,148,2.0,6.0,74,0.00,,,0.04,,2013-02-25 01:21:00,
2013-02-24 17:31:00,46.0,39.0,30.14,SSE,148,1.0,5.0,75,0.00,,,0.04,,2013-02-25 01:31:00,
2013-02-24 17:42:00,46.0,39.0,30.14,SSE,148,1.0,5.0,75,0.00,,,0.04,,2013-02-25 01:42:00,
2013-02-24 17:52:00,46.0,39.0,30.14,SE,138,3.0,7.0,75,0.00,,,0.04,,2013-02-25 01:52:00,
2013-02-24 18:01:00,45.0,38.0,30.13,SE,146,4.0,9.0,75,0.00,,,0.04,,2013-02-25 02:01:00,
2013-02-24 18:11:00,45.0,38.0,30.13,SE,146,4.0,9.0,75,0.00,,,0.04,,2013-02-25 02:11:00,
2013-02-24 18:21:00,45.0,38.0,30.12,SE,137,3.0,7.0,76,0.00,,,0.04,,2013-02-25 02:21:00,
2013-02-24 18:31:00,45.0,38.0,30.12,SSE,157,3.0,8.0,76,0.00,,,0.02,,2013-02-25 02:31:00,
2013-02-24 18:41:00,45.0,38.0,30.12,SSE,157,3.0,8.0,76,0.00,,,0.02,,2013-02-25 02:41:00,
2013-02-24 18:52:00,45.0,38.0,30.11,SSE,147,4.0,7.0,75,0.00,,,0.02,,2013-02-25 02:52:00,
2013-02-24 19:01:00,45.0,37.0,30.10,SSE,158,2.0,11.0,74,0.00,,,0.02,,2013-02-25 03:01:00,
2013-02-24 19:11:00,45.0,37.0,30.10,SSE,158,2.0,11.0,74,0.00,,,0.02,,2013-02-25 03:11:00,
2013-02-24 19:21:00,46.0,38.0,30.10,South,188,2.0,7.0,73,0.00,,,0.01,,2013-02-25 03:21:00,
2013-02-24 19:31:00,46.0,37.0,30.09,SSE,155,1.0,10.0,70,0.00,,,0.01,,2013-02-25 03:31:00,
2013-02-24 19:41:00,46.0,37.0,30.09,SSE,155,1.0,10.0,70,0.00,,,0.01,,2013-02-25 03:41:00,
2013-02-24 19:52:00,46.0,37.0,30.09,SSE,149,2.0,9.0,70,0.00,,,0.01,,2013-02-25 03:52:00,
2013-02-24 20:01:00,46.0,36.0,30.08,SSE,147,6.0,10.0,69,0.00,,,0.01,,2013-02-25 04:01:00,
2013-02-24 20:11:00,46.0,36.0,30.08,SSE,147,6.0,10.0,69,0.00,,,0.01,,2013-02-25 04:11:00,
2013-02-24 20:21:00,46.0,36.0,30.06,SSW,209,2.0,14.0,68,0.00,,,0.01,,2013-02-25 04:21:00,
2013-02-24 20:31:00,46.0,36.0,30.04,SE,139,4.0,10.0,68,0.00,,,0.01,,2013-02-25 04:31:00,
2013-02-24 20:41:00,46.0,36.0,30.04,SE,139,4.0,10.0,68,0.00,,,0.01,,2013-02-25 04:41:00,
2013-02-24 20:52:00,46.0,36.0,30.04,SSE,153,4.0,10.0,67,0.00,,,0.01,,2013-02-25 04:52:00,
2013-02-24 21:01:00,46.0,36.0,30.03,SSE,148,1.0,7.0,69,0.00,,,0.01,,2013-02-25 05:01:00,
2013-02-24 21:11:00,46.0,36.0,30.03,SSE,148,1.0,7.0,69,0.00,,,0.01,,2013-02-25 05:11:00,
2013-02-24 21:22:00,46.0,36.0,30.03,SE,140,2.0,10.0,68,0.00,,,0.00,,2013-02-25 05:22:00,
2013-02-24 21:31:00,46.0,36.0,30.03,SSE,161,5.0,12.0,67,0.00,,,0.00,,2013-02-25 05:31:00,
2013-02-24 21:41:00,46.0,36.0,30.03,SSE,161,5.0,12.0,67,0.00,,,0.00,,2013-02-25 05:41:00,
2013-02-24 21:52:00,46.0,36.0,30.02,South,188,6.0,14.0,68,0.00,,,0.00,,2013-02-25 05:52:00,
2013-02-24 22:02:00,46.0,36.0,30.01,SSW,200,3.0,11.0,69,0.00,,,0.00,,2013-02-25 06:02:00,
2013-02-24 22:11:00,46.0,36.0,30.01,SSW,200,3.0,11.0,69,0.00,,,0.00,,2013-02-25 06:11:00,
2013-02-24 22:21:00,46.0,37.0,30.01,SSW,196,1.0,7.0,72,0.00,,,0.00,,2013-02-25 06:21:00,
2013-02-24 22:31:00,46.0,37.0,30.00,South,177,4.0,7.0,71,0.01,,,0.01,,2013-02-25 06:31:00,
2013-02-24 22:41:00,46.0,37.0,30.00,South,177,4.0,7.0,71,0.01,,,0.01,,2013-02-25 06:41:00,
2013-02-24 22:52:00,46.0,37.0,29.99,SSW,205,1.0,10.0,71,0.01,,,0.01,,2013-02-25 06:52:00,
2013-02-24 23:01:00,46.0,37.0,29.99,South,188,3.0,11.0,71,0.01,,,0.01,,2013-02-25 07:01:00,
2013-02-24 23:11:00,45.0,35.0,29.97,SE,128,6.0,18.0,69,0.01,,,0.01,,2013-02-25 07:11:00,
2013-02-24 23:21:00,45.0,35.0,29.97,SE,128,6.0,18.0,69,0.01,,,0.01,,2013-02-25 07:21:00,
2013-02-24 23:31:00,46.0,36.0,29.96,SSW,210,2.0,12.0,67,0.00,,,0.01,,2013-02-25 07:31:00,
2013-02-24 23:41:00,46.0,36.0,29.96,SSW,210,2.0,12.0,67,0.00,,,0.01,,2013-02-25 07:41:00,
2013-02-24 23:52:00,46.0,35.0,29.95,SSW,205,5.0,13.0,64,0.00,,,0.01,,2013-02-25 07:52:00,